Location: Cheching
(60.0667°N, 164.2167°W)
Time: 18:15:07
(UTC+00:00)

AO-27 - Visible Passes

Search period start: 16 January 2021 00:00
Search period end: 26 January 2021 00:00
Orbit: 784 x 798 km, 98.9° (Epoch: 15 January)

Date Brightness Start Highest point End Pass type
(mag) Time Alt. Az. Time Alt. Az. Time Alt. Az.
16 Jan 7.8 03:28:51 10° SE 03:33:55 56° ENE 03:39:01 10° NNW visible
16 Jan 9.2 05:08:50 10° SSW 05:13:39 37° W 05:18:29 10° NNW visible
16 Jan 9.2 17:11:07 10° NNE 17:15:59 38° E 17:20:49 10° SSE visible
17 Jan 8.4 04:39:12 10° S 04:44:18 57° WSW 04:49:27 10° NNW visible
17 Jan 10.8 06:22:21 10° WSW 06:24:57 14° W 06:27:33 10° NW visible
17 Jan 10.0 16:42:14 10° NE 16:46:32 26° E 16:50:48 10° SSE visible
17 Jan 7.6 18:21:23 10° NNE 18:26:36 80° WNW 18:31:47 10° SSW visible
18 Jan 7.7 04:09:51 10° SSE 04:15:04 86° WSW 04:20:19 10° NNW visible
18 Jan 10.2 05:51:25 10° SW 05:55:19 21° W 05:59:15 10° NW visible
18 Jan 10.6 16:13:37 10° NE 16:16:58 17° E 16:20:16 10° SE visible
18 Jan 8.0 17:52:12 10° NNE 17:57:25 70° ESE 18:02:36 10° S visible
19 Jan 7.7 03:40:48 10° SE 03:45:57 65° ENE 03:51:07 10° NNW visible
19 Jan 9.6 05:21:12 10° SSW 05:25:49 32° W 05:30:28 10° NNW visible
19 Jan 11.0 15:46:08 10° ENE 15:47:16 11° ENE 15:48:23 10° E visible
19 Jan 8.9 17:23:06 10° NNE 17:28:07 45° E 17:33:06 10° S visible
20 Jan 8.7 04:51:24 10° S 04:56:26 48° W 05:01:29 10° NNW visible
20 Jan 11.0 06:35:35 10° W 06:37:13 11° WNW 06:38:53 10° WNW visible
20 Jan 9.7 16:54:09 10° NNE 16:58:43 30° E 17:03:15 10° SSE visible
20 Jan 7.6 18:33:28 10° NNE 18:38:38 68° WNW 18:43:47 10° SSW visible
21 Jan 7.9 04:21:57 10° SSE 04:27:09 73° WSW 04:32:22 10° NNW visible
21 Jan 10.5 06:04:04 10° SW 06:07:33 18° W 06:11:03 10° NW visible
21 Jan 10.4 16:25:25 10° NE 16:29:12 20° E 16:32:58 10° SE visible
21 Jan 7.8 18:04:16 10° NNE 18:09:29 82° ESE 18:14:42 10° SSW visible
22 Jan 7.6 03:52:48 10° SSE 03:57:59 76° ENE 04:03:11 10° NNW visible
22 Jan 9.9 05:33:38 10° SSW 05:38:00 27° W 05:42:24 10° NNW visible
22 Jan 10.9 15:57:13 10° NE 15:59:33 13° E 16:01:53 10° ESE visible
22 Jan 8.5 17:35:08 10° NNE 17:40:15 54° ESE 17:45:20 10° S visible
23 Jan 9.1 05:03:41 10° SSW 05:08:34 41° W 05:13:29 10° NNW visible
23 Jan 9.4 17:06:07 10° NNE 17:10:53 35° E 17:15:38 10° SSE visible
24 Jan 8.2 04:34:06 10° S 04:39:15 62° WSW 04:44:25 10° NNW visible
24 Jan 10.7 06:16:51 10° WSW 06:19:48 15° W 06:22:45 10° NW visible
24 Jan 10.1 16:37:16 10° NE 16:41:24 23° E 16:45:32 10° SE visible
24 Jan 7.7 18:16:19 10° NNE 18:21:33 86° WNW 18:26:45 10° SSW visible
25 Jan 7.7 04:04:49 10° SSE 04:10:02 88° ENE 04:15:16 10° NNW visible
25 Jan 10.1 05:46:07 10° SW 05:50:12 23° W 05:54:17 10° NW visible
25 Jan 10.7 16:08:47 10° NE 16:11:49 15° E 16:14:51 10° ESE visible
25 Jan 8.2 17:47:10 10° NNE 17:52:21 64° ESE 17:57:31 10° S visible
